Location: Unspecified
(0.0000°N, 0.0000°E)
Time: 23:35:46
(UTC+00:00)

STARLINK-32000 - Visible Passes

Search period start: 20 June 2025 00:00
Search period end: 30 June 2025 00:00
Orbit: 474 x 476 km, 53.2° (Epoch: 20 June)

Date Brightness Start Highest point End Pass type
(mag) Time Alt. Az. Time Alt. Az. Time Alt. Az.
20 Jun 6.4 19:26:36 10° W 19:29:06 17° NW 19:31:36 10° NNW visible
21 Jun 6.6 05:34:17 10° NNE 05:36:37 16° NE 05:38:58 10° E visible
21 Jun 6.2 18:56:45 10° WSW 18:59:38 21° NW 19:02:30 10° N visible
22 Jun 6.8 05:05:23 10° NNE 05:07:08 13° NE 05:08:53 10° E visible
22 Jun 5.9 18:26:59 10° WSW 18:30:09 27° NW 18:33:18 10° N visible
23 Jun 7.1 04:37:10 10° NE 04:37:39 10° NE 04:38:08 10° ENE visible
25 Jun 3.5 05:12:50 10° NW 05:16:24 49° WSW 05:20:00 10° SSE visible
26 Jun 3.2 04:43:42 13° NW 04:46:56 64° SW 04:50:36 10° SSE visible
27 Jun 5.9 04:20:45 13° SSE 04:20:45 13° SSE 04:21:09 10° SSE visible
